{"data":{"norad_id":63580,"epoch":"2026-05-24T15:11:47.862240Z","epoch_age_seconds":103768,"freshness":"FRESH","line1":"1 63580U 25076M   26144.63319285  .00013990  00000+0  51674-3 0  9993","line2":"2 63580  42.9998 252.9242 0001772 275.9302  84.1348 15.27593828 63441","mean_motion":15.27593828,"eccentricity":0.0001772,"inclination_deg":42.9998,"raan_deg":252.9242,"arg_perigee_deg":275.9302,"mean_anomaly_deg":84.1348,"bstar":0.00051674,"rev_number":6344,"period_min":94.265895397425,"perigee_km":481.79189550627,"apogee_km":484.22348518453,"semimajor_km":6861.1446903454,"source":"CELESTRAK","updated_at":"2026-05-25T13:38:20.047765Z"}}